ROMMA est une association bénévole à but non lucratif. Votre soutien est indispensable : ADHERER à ROMMA ou FAIRE un DON

Voiron - (38, Isère)

Voironnais (300 m)   Longitude: 05° 35' E   Latitude: 45° 23' N Station partenaire n°109
 

Détail journalier du     <<     >>

Température Precipitation Humidité Pression Vent Dir Rafale Dir. rafale Ensol.
Heure (°C) (mm) (%) (hPa) (km/h) (km/h) (min)
01:00 20.905110163ONO10E0
02:00 19.805710142ESE11SSE0
03:00 18.306610151NO5NO0
04:00 17.506810142NO5NO0
05:00 17.106810131ONO5ONO0
06:00 17.106810142SSE6SSO0
07:00 17.106810142S8NO0
08:00 17.107310163SSO18E0
09:00 17.207510185NNE16NE0
10:00 17.10.27810173N8NNO0
11:00 18.80.669101612ENE44ENE0
12:00 18.9073101414SSE32SSE0
13:00 18.40.48210154SE16SSE0
14:00 20.9070101411ENE29ENE0
15:00 23.705810126ENE23ESE30
16:00 25.905010118N24N60
17:00 25.805310129NE37NE60
18:00 25.1054100911N42NE0
19:00 25.105710086ENE21ESE0
20:00 24.2061100910NE34ESE60
21:00 23.606610103ENE11E60
22:00 20.607910129NO23N0
23:00 19.707910128NNO21NNO0
minuit 18.708310144ONO11ONO0

Graphique du 14-06-2019

 

Serveur OMMA